LC10 LFMN-LIPZ

Flight info

Callsign LC10
Flight time 0h 48m
Altitude 250
Route BASI7A MONEB MISPO RIDVA TUVDE ALBE2P
Aircraft B733/M-V/N

Departure

Time 2026-05-06 07:10
Airport Nice-Côte d'Azur Airport (LFMN)

Arrival

Time 2026-05-06 07:59
Airport Venice Marco Polo Airport (LIPZ)
Time Latitude Longitude Altitude Speed Heading
2026-05-06 07:00 43.65742 7.20717 18 ft 0 kts 315°
2026-05-06 07:07 43.65744 7.20714 18 ft 0 kts 315°
2026-05-06 07:07 43.65757 7.20697 19 ft 6 kts 316°
2026-05-06 07:07 43.65755 7.20626 19 ft 12 kts 226°
2026-05-06 07:08 43.65662 7.20626 17 ft 18 kts 142°
2026-05-06 07:08 43.65551 7.20598 14 ft 21 kts 218°
2026-05-06 07:08 43.65438 7.20436 14 ft 24 kts 225°
2026-05-06 07:08 43.65303 7.20295 10 ft 24 kts 179°
2026-05-06 07:09 43.65231 7.20452 12 ft 21 kts 60°
2026-05-06 07:09 43.65333 7.20617 14 ft 30 kts 45°
2026-05-06 07:09 43.65645 7.21040 14 ft 98 kts 44°
2026-05-06 07:09 43.66278 7.21917 19 ft 157 kts 44°
2026-05-06 07:10 43.67106 7.23158 259 ft 184 kts 47°
2026-05-06 07:10 43.67969 7.24610 653 ft 203 kts 53°
2026-05-06 07:10 43.68319 7.26423 1048 ft 205 kts 99°
2026-05-06 07:10 43.67601 7.28117 1487 ft 211 kts 147°
2026-05-06 07:11 43.66215 7.28864 1927 ft 222 kts 163°
2026-05-06 07:11 43.64827 7.29774 2343 ft 230 kts 136°
2026-05-06 07:11 43.63892 7.31592 2813 ft 235 kts 120°
2026-05-06 07:11 43.63421 7.33707 3225 ft 238 kts 84°
2026-05-06 07:12 43.63856 7.35886 3681 ft 239 kts 67°
2026-05-06 07:12 43.64459 7.38042 4106 ft 241 kts 68°
2026-05-06 07:12 43.65073 7.40243 4549 ft 245 kts 67°
2026-05-06 07:12 43.65706 7.42525 5015 ft 258 kts 67°
2026-05-06 07:13 43.66349 7.44850 5456 ft 262 kts 67°
2026-05-06 07:13 43.67008 7.47245 5895 ft 264 kts 67°
2026-05-06 07:13 43.67663 7.49654 6329 ft 267 kts 68°
2026-05-06 07:13 43.68320 7.52120 6761 ft 274 kts 68°
2026-05-06 07:14 43.68987 7.54629 7224 ft 281 kts 68°
2026-05-06 07:14 43.69656 7.57146 7745 ft 285 kts 68°
2026-05-06 07:14 43.70337 7.59710 8370 ft 285 kts 68°
2026-05-06 07:14 43.71025 7.62305 8897 ft 288 kts 68°
2026-05-06 07:15 43.71715 7.64905 9442 ft 290 kts 68°
2026-05-06 07:15 43.72413 7.67546 9949 ft 293 kts 68°
2026-05-06 07:15 43.73140 7.70244 10108 ft 310 kts 65°
2026-05-06 07:15 43.74327 7.72829 10158 ft 326 kts 48°
2026-05-06 07:16 43.75857 7.75227 10450 ft 337 kts 47°
2026-05-06 07:16 43.77426 7.77667 10967 ft 345 kts 47°
2026-05-06 07:16 43.79023 7.80161 11642 ft 347 kts 47°
2026-05-06 07:16 43.80605 7.82637 12305 ft 349 kts 47°
2026-05-06 07:17 43.82212 7.85157 12916 ft 352 kts 46°
2026-05-06 07:17 43.83833 7.87700 13501 ft 355 kts 46°
2026-05-06 07:17 43.85468 7.90268 14074 ft 358 kts 46°
2026-05-06 07:17 43.87118 7.92861 14635 ft 362 kts 46°
2026-05-06 07:18 43.88781 7.95479 15182 ft 365 kts 46°
2026-05-06 07:18 43.90401 7.98191 15717 ft 368 kts 49°
2026-05-06 07:18 43.92007 8.00965 16239 ft 371 kts 48°
2026-05-06 07:18 43.93626 8.03758 16749 ft 374 kts 48°
2026-05-06 07:19 43.95261 8.06575 17247 ft 377 kts 48°
2026-05-06 07:19 43.96907 8.09414 17738 ft 380 kts 48°
2026-05-06 07:19 43.98568 8.12278 18220 ft 383 kts 48°
2026-05-06 07:19 44.00245 8.15172 18692 ft 386 kts 47°
2026-05-06 07:20 44.01930 8.18083 19155 ft 389 kts 47°
2026-05-06 07:20 44.03598 8.20968 19601 ft 392 kts 47°
2026-05-06 07:20 44.05336 8.23977 20055 ft 395 kts 47°
2026-05-06 07:20 44.07055 8.26954 20485 ft 398 kts 47°
2026-05-06 07:21 44.08785 8.29955 20908 ft 400 kts 47°
2026-05-06 07:21 44.10527 8.32978 21317 ft 403 kts 47°
2026-05-06 07:21 44.12262 8.35975 21698 ft 407 kts 47°
2026-05-06 07:21 44.14030 8.39040 22131 ft 409 kts 47°
2026-05-06 07:22 44.15807 8.42128 22533 ft 411 kts 47°
2026-05-06 07:22 44.17594 8.45243 22920 ft 414 kts 47°
2026-05-06 07:22 44.19390 8.48377 23297 ft 416 kts 47°
2026-05-06 07:22 44.21199 8.51538 23673 ft 419 kts 47°
2026-05-06 07:23 44.23017 8.54717 24040 ft 422 kts 47°
2026-05-06 07:23 44.24845 8.57919 24398 ft 424 kts 47°
2026-05-06 07:23 44.26681 8.61139 24757 ft 427 kts 47°
2026-05-06 07:23 44.28530 8.64383 25107 ft 429 kts 46°
2026-05-06 07:24 44.30388 8.67655 25387 ft 433 kts 47°
2026-05-06 07:24 44.32227 8.70903 25702 ft 436 kts 47°
2026-05-06 07:24 44.34108 8.74222 25835 ft 434 kts 47°
2026-05-06 07:24 44.35971 8.77511 25871 ft 431 kts 47°
2026-05-06 07:25 44.37824 8.80784 25847 ft 428 kts 47°
2026-05-06 07:25 44.39663 8.84034 25832 ft 427 kts 47°
2026-05-06 07:25 44.41501 8.87286 25826 ft 427 kts 47°
2026-05-06 07:25 44.43341 8.90543 25829 ft 427 kts 47°
2026-05-06 07:26 44.45150 8.93751 25833 ft 427 kts 47°
2026-05-06 07:26 44.46985 8.97009 25834 ft 427 kts 47°
2026-05-06 07:26 44.48817 9.00266 25834 ft 426 kts 47°
2026-05-06 07:26 44.50648 9.03524 25832 ft 425 kts 47°
2026-05-06 07:27 44.52471 9.06771 25831 ft 425 kts 47°
2026-05-06 07:27 44.54292 9.10017 25831 ft 424 kts 47°
2026-05-06 07:27 44.56111 9.13265 25833 ft 424 kts 47°
2026-05-06 07:27 44.57926 9.16509 25838 ft 423 kts 47°
2026-05-06 07:28 44.59737 9.19749 25854 ft 423 kts 47°
2026-05-06 07:28 44.61521 9.22945 25873 ft 423 kts 47°
2026-05-06 07:28 44.64946 9.29698 25934 ft 427 kts 51°
2026-05-06 07:29 44.66592 9.33155 25965 ft 426 kts 51°
2026-05-06 07:29 44.68246 9.36597 25988 ft 426 kts 51°
2026-05-06 07:29 44.69904 9.40033 26003 ft 426 kts 51°
2026-05-06 07:29 44.71565 9.43471 26003 ft 426 kts 51°
2026-05-06 07:30 44.73224 9.46909 26000 ft 426 kts 51°
2026-05-06 07:30 44.74884 9.50351 26002 ft 426 kts 51°
2026-05-06 07:30 44.76543 9.53794 26002 ft 426 kts 51°
2026-05-06 07:30 44.78200 9.57238 26001 ft 426 kts 51°
2026-05-06 07:31 44.79857 9.60685 26001 ft 426 kts 51°
2026-05-06 07:31 44.81514 9.64136 26001 ft 426 kts 51°
2026-05-06 07:31 44.83168 9.67593 25973 ft 427 kts 51°
2026-05-06 07:31 44.84819 9.71053 25998 ft 427 kts 51°
2026-05-06 07:32 44.86447 9.74462 26002 ft 427 kts 51°
2026-05-06 07:32 44.88101 9.77926 26003 ft 427 kts 51°
2026-05-06 07:32 44.89755 9.81392 26003 ft 427 kts 51°
2026-05-06 07:32 44.91404 9.84853 26002 ft 426 kts 51°
2026-05-06 07:33 44.93054 9.88318 25994 ft 426 kts 51°
2026-05-06 07:33 44.94704 9.91788 25978 ft 427 kts 51°
2026-05-06 07:33 44.96352 9.95260 25961 ft 427 kts 51°
2026-05-06 07:33 44.98000 9.98733 25942 ft 427 kts 51°
2026-05-06 07:34 44.99654 10.02225 25932 ft 429 kts 51°
2026-05-06 07:34 45.01313 10.05729 25930 ft 431 kts 51°
2026-05-06 07:34 45.02835 10.09387 25916 ft 438 kts 63°
2026-05-06 07:34 45.03876 10.13449 25938 ft 442 kts 67°
2026-05-06 07:35 45.04858 10.17559 25936 ft 442 kts 67°
2026-05-06 07:35 45.05867 10.21659 25928 ft 442 kts 66°
2026-05-06 07:35 45.06895 10.25750 25916 ft 443 kts 66°
2026-05-06 07:35 45.07932 10.29846 25903 ft 444 kts 66°
2026-05-06 07:36 45.08971 10.33948 25891 ft 444 kts 66°
2026-05-06 07:36 45.10013 10.38063 25889 ft 445 kts 66°
2026-05-06 07:36 45.11063 10.42183 25881 ft 446 kts 66°
2026-05-06 07:36 45.12114 10.46308 25897 ft 447 kts 66°
2026-05-06 07:37 45.13160 10.50447 25907 ft 448 kts 66°
2026-05-06 07:37 45.14202 10.54589 25915 ft 447 kts 66°
2026-05-06 07:37 45.15241 10.58728 25916 ft 447 kts 66°
2026-05-06 07:37 45.16277 10.62864 25914 ft 447 kts 66°
2026-05-06 07:38 45.17300 10.67010 25890 ft 447 kts 68°
2026-05-06 07:38 45.18296 10.71096 25913 ft 445 kts 67°
2026-05-06 07:38 45.19312 10.75246 25916 ft 445 kts 67°
2026-05-06 07:38 45.20329 10.79386 25915 ft 445 kts 67°
2026-05-06 07:39 45.21354 10.83562 25911 ft 445 kts 67°
2026-05-06 07:39 45.22367 10.87690 25911 ft 445 kts 67°
2026-05-06 07:39 45.23380 10.91828 25914 ft 446 kts 66°
2026-05-06 07:39 45.24394 10.95973 25913 ft 446 kts 66°
2026-05-06 07:40 45.25406 11.00125 25914 ft 446 kts 66°
2026-05-06 07:40 45.26421 11.04290 25915 ft 446 kts 66°
2026-05-06 07:40 45.27430 11.08444 25913 ft 446 kts 66°
2026-05-06 07:40 45.28431 11.12568 25915 ft 446 kts 66°
2026-05-06 07:41 45.29453 11.16787 25914 ft 446 kts 66°
2026-05-06 07:41 45.30493 11.20976 25908 ft 444 kts 62°
2026-05-06 07:41 45.31955 11.24775 25882 ft 444 kts 52°
2026-05-06 07:41 45.33594 11.28527 25893 ft 447 kts 53°
2026-05-06 07:42 45.35197 11.32333 25913 ft 449 kts 54°
2026-05-06 07:42 45.36771 11.36181 25924 ft 449 kts 54°
2026-05-06 07:42 45.38329 11.40044 25737 ft 453 kts 54°
2026-05-06 07:42 45.39878 11.43898 25008 ft 455 kts 55°
2026-05-06 07:43 45.41438 11.47815 24235 ft 455 kts 57°
2026-05-06 07:43 45.42512 11.52105 23449 ft 463 kts 78°
2026-05-06 07:43 45.42491 11.56624 22686 ft 466 kts 100°
2026-05-06 07:43 45.41372 11.60912 21915 ft 463 kts 122°
2026-05-06 07:44 45.39334 11.64376 21177 ft 457 kts 137°
2026-05-06 07:44 45.37253 11.67766 20427 ft 456 kts 127°
2026-05-06 07:44 45.35555 11.71509 19674 ft 448 kts 121°
2026-05-06 07:44 45.34057 11.75362 18919 ft 440 kts 119°
2026-05-06 07:45 45.32659 11.79171 18169 ft 431 kts 118°
2026-05-06 07:45 45.31300 11.82941 17414 ft 424 kts 118°
2026-05-06 07:45 45.29986 11.86603 16670 ft 416 kts 118°
2026-05-06 07:45 45.28684 11.90233 15920 ft 409 kts 118°
2026-05-06 07:46 45.27411 11.93781 15173 ft 403 kts 118°
2026-05-06 07:46 45.26201 11.97329 14413 ft 397 kts 110°
2026-05-06 07:46 45.25523 12.01076 13667 ft 390 kts 107°
2026-05-06 07:46 45.24394 12.04500 12922 ft 382 kts 126°
2026-05-06 07:47 45.22574 12.07127 12179 ft 374 kts 146°
2026-05-06 07:47 45.20243 12.08695 11422 ft 366 kts 166°
2026-05-06 07:47 45.17776 12.08990 10681 ft 360 kts 187°
2026-05-06 07:47 45.15426 12.08001 10063 ft 349 kts 209°
2026-05-06 07:48 45.13520 12.06009 9554 ft 337 kts 226°
2026-05-06 07:48 45.11925 12.03607 9006 ft 333 kts 228°
2026-05-06 07:48 45.10361 12.01196 8435 ft 333 kts 228°
2026-05-06 07:48 45.08805 11.98796 7860 ft 331 kts 228°
2026-05-06 07:49 45.07425 11.96277 7272 ft 323 kts 244°
2026-05-06 07:49 45.06817 11.93300 6692 ft 315 kts 267°
2026-05-06 07:49 45.07118 11.90296 6109 ft 309 kts 292°
2026-05-06 07:49 45.08264 11.87791 5523 ft 303 kts 317°
2026-05-06 07:50 45.10028 11.86246 4938 ft 298 kts 342°
2026-05-06 07:50 45.12031 11.85938 4363 ft 294 kts
2026-05-06 07:50 45.13878 11.87060 3782 ft 289 kts 40°
2026-05-06 07:50 45.15105 11.89246 3230 ft 286 kts 54°
2026-05-06 07:51 45.16309 11.91396 2994 ft 270 kts 49°
2026-05-06 07:51 45.17553 11.93297 2929 ft 255 kts 45°
2026-05-06 07:51 45.18789 11.95018 2957 ft 236 kts 43°
2026-05-06 07:51 45.19946 11.96543 2961 ft 225 kts 42°
2026-05-06 07:52 45.21119 11.98029 3021 ft 225 kts 41°
2026-05-06 07:52 45.22300 11.99492 3044 ft 226 kts 40°
2026-05-06 07:52 45.23481 12.00931 3034 ft 225 kts 40°
2026-05-06 07:52 45.24685 12.02383 3024 ft 224 kts 40°
2026-05-06 07:53 45.25871 12.03803 3017 ft 224 kts 40°
2026-05-06 07:53 45.27055 12.05233 3016 ft 223 kts 40°
2026-05-06 07:53 45.28268 12.06726 3013 ft 245 kts 41°
2026-05-06 07:53 45.29570 12.08360 2999 ft 248 kts 41°
2026-05-06 07:54 45.30861 12.10003 2999 ft 249 kts 41°
2026-05-06 07:54 45.32147 12.11648 3003 ft 249 kts 41°
2026-05-06 07:54 45.33419 12.13279 3008 ft 249 kts 41°
2026-05-06 07:54 45.34713 12.14936 3008 ft 249 kts 41°
2026-05-06 07:55 45.35997 12.16577 3006 ft 249 kts 41°
2026-05-06 07:55 45.37284 12.18221 3015 ft 240 kts 41°
2026-05-06 07:55 45.38477 12.19745 2977 ft 226 kts 41°
2026-05-06 07:55 45.39656 12.21230 2689 ft 223 kts 42°
2026-05-06 07:56 45.40806 12.22697 2328 ft 224 kts 43°
2026-05-06 07:56 45.41970 12.24200 1996 ft 223 kts 43°
2026-05-06 07:56 45.43107 12.25665 1693 ft 218 kts 43°
2026-05-06 07:56 45.44212 12.27087 1408 ft 211 kts 43°
2026-05-06 07:57 45.45264 12.28438 1127 ft 196 kts 43°
2026-05-06 07:57 45.46231 12.29678 903 ft 175 kts 43°
2026-05-06 07:57 45.47090 12.30780 646 ft 157 kts 43°
2026-05-06 07:57 45.47857 12.31766 441 ft 144 kts 43°
2026-05-06 07:58 45.48589 12.32706 285 ft 142 kts 43°
2026-05-06 07:58 45.49321 12.33647 74 ft 141 kts 43°
2026-05-06 07:58 45.50023 12.34561 7 ft 114 kts 41°
2026-05-06 07:58 45.50458 12.35116 7 ft 65 kts 41°
2026-05-06 07:59 45.50752 12.35495 10 ft 45 kts 33°
2026-05-06 07:59 45.50965 12.35562 11 ft 20 kts 340°
2026-05-06 07:59 45.50980 12.35373 10 ft 21 kts 258°
2026-05-06 07:59 45.50926 12.35171 7 ft 23 kts 224°
2026-05-06 08:00 45.50805 12.35013 7 ft 23 kts 221°
2026-05-06 08:00 45.50677 12.34848 4 ft 25 kts 222°
2026-05-06 08:00 45.50663 12.34671 4 ft 24 kts 327°
2026-05-06 08:00 45.50784 12.34503 4 ft 24 kts 311°
2026-05-06 08:01 45.50836 12.34362 4 ft 12 kts 237°
2026-05-06 08:01 45.50806 12.34320 4 ft 0 kts 222°